Change the Weather History Date:

Sunday, June 9, 2013

  Actual Average (KSPI) Record (KSPI)
Temperature  
Mean Temperature 72 °F 71 °F  
Max Temperature 82 °F 82 °F 101 °F (1911)
Min Temperature 62 °F 60 °F 42 °F (1913)
Degree Days  
Heating Degree Days 0 1  
Month to date heating degree days 9  
Since 1 June heating degree days 9  
Since 1 July heating degree days 5479  
Cooling Degree Days 7 7  
Month to date cooling degree days 52  
Year to date cooling degree days 156  
Since 1 June cooling degree days 52  
Growing Degree Days 22 (Base 50)    
Moisture  
Dew Point 58 °F    
Average Humidity 66    
Maximum Humidity 88    
Minimum Humidity 37    
Precipitation  
Precipitation 0.00 in 0.15 in 2.20 in (1898)
Month to date precipitation 1.40  
Year to date precipitation 15.41  
Snow  
Snow 0.00 in 0.00 in 0.00 in ()
Month to date snowfall 0.0  
Since 1 June snowfall 0.0  
Since 1 July snowfall 20.9  
Snow Depth -    
Sea Level Pressure  
Sea Level Pressure 29.87 in    
Wind  
Wind Speed 5 mph (South)    
Max Wind Speed 20 mph    
Max Gust Speed 26 mph    
Visibility 10 miles    
Events Rain    
T = Trace of Precipitation, MM = Missing Value Source: NWS Daily Summary

Daily Weather History Graph

Daily Weather History Graph

Search for Another Location

Airport or City:

Trip Planner

Search our weather history database for the weather conditions in past years. The results will help you decide how hot, cold, wet, or windy it might be!

Date:

Astronomy

Jun. 09, 2013 Rise Set
Actual Time 5:27 AM CDT 8:25 PM CDT
Civil Twilight 4:55 AM CDT 8:58 PM CDT
Nautical Twilight 4:13 AM CDT 9:40 PM CDT
Astronomical Twilight 3:25 AM CDT 10:28 PM CDT
Moon 6:24 AM CDT (6/9) 9:12 PM CDT (6/9)
Length of Visible Light 16h 03m
Length of Day
14h 58m
New Moon, 1% of the Moon is Illuminated
Jun 9
New Moon
Jun 16
First Quarter
Jun 23
Full
Jun 29
Last Quarter
Jul 8
New

Hourly Weather History & Observations

Time (CDT) Temp. Heat Index Dew Point Humidity Pressure Visibility Wind Dir Wind Speed Gust Speed Precip Events Conditions
12:15 AM 66.4 °F - 57.9 °F 74% 29.96 in 10.0 mi Calm Calm - N/A   Clear
12:35 AM 66.2 °F - 58.1 °F 75% 29.95 in 10.0 mi Calm Calm - N/A   Clear
12:55 AM 66.4 °F - 58.3 °F 75% 29.95 in 10.0 mi Calm Calm - N/A   Clear
1:15 AM 66.2 °F - 58.1 °F 75% 29.94 in 10.0 mi South 5.8 mph - N/A   Clear
1:35 AM 66.0 °F - 58.1 °F 76% 29.94 in 10.0 mi Calm Calm - N/A   Clear
1:55 AM 64.9 °F - 58.1 °F 78% 29.94 in 10.0 mi Calm Calm - N/A   Clear
2:15 AM 65.1 °F - 58.1 °F 78% 29.94 in 10.0 mi Calm Calm - N/A   Clear
2:35 AM 64.4 °F - 57.9 °F 79% 29.94 in 10.0 mi Calm Calm - N/A   Clear
2:55 AM 64.0 °F - 57.6 °F 79% 29.94 in 10.0 mi Calm Calm - N/A   Clear
3:15 AM 64.4 °F - 57.4 °F 78% 29.93 in 10.0 mi Calm Calm - N/A   Clear
3:35 AM 64.6 °F - 57.2 °F 77% 29.94 in 10.0 mi Calm Calm - N/A   Clear
3:55 AM 64.0 °F - 56.8 °F 77% 29.94 in 10.0 mi Calm Calm - N/A   Clear
4:15 AM 62.8 °F - 56.7 °F 80% 29.94 in 10.0 mi Calm Calm - N/A   Clear
4:35 AM 62.6 °F - 56.8 °F 81% 29.94 in 10.0 mi Calm Calm - N/A   Clear
4:55 AM 63.5 °F - 57.0 °F 79% 29.93 in 10.0 mi Calm Calm - N/A   Clear
5:15 AM 62.6 °F - 57.0 °F 82% 29.94 in 10.0 mi Calm Calm - N/A   Clear
5:35 AM 62.8 °F - 57.2 °F 82% 29.94 in 10.0 mi Calm Calm - N/A   Scattered Clouds
5:55 AM 63.0 °F - 57.2 °F 81% 29.93 in 10.0 mi Calm Calm - N/A   Mostly Cloudy
6:15 AM 63.9 °F - 57.6 °F 80% 29.93 in 10.0 mi Calm Calm - N/A   Scattered Clouds
6:35 AM 66.0 °F - 58.1 °F 76% 29.93 in 10.0 mi Calm Calm - N/A   Mostly Cloudy
6:55 AM 67.8 °F - 58.3 °F 71% 29.93 in 10.0 mi Calm Calm - N/A   Scattered Clouds
7:15 AM 68.5 °F - 58.3 °F 70% 29.92 in 10.0 mi SSE 6.9 mph - N/A   Scattered Clouds
7:35 AM 71.2 °F - 57.4 °F 61% 29.92 in 10.0 mi South 10.4 mph - N/A   Clear
7:55 AM 72.0 °F - 57.0 °F 59% 29.92 in 10.0 mi South 10.4 mph - N/A   Clear
8:15 AM 73.4 °F - 57.0 °F 56% 29.92 in 10.0 mi South 11.5 mph - N/A   Clear
8:35 AM 73.8 °F - 57.4 °F 56% 29.92 in 10.0 mi South 11.5 mph - N/A   Clear
8:55 AM 74.3 °F - 57.4 °F 55% 29.92 in 10.0 mi South 12.7 mph - N/A   Clear
9:15 AM 75.6 °F - 57.9 °F 54% 29.91 in 10.0 mi South 15.0 mph 20.7 mph N/A   Clear
9:35 AM 76.5 °F - 57.7 °F 52% 29.91 in 10.0 mi South 11.5 mph 18.4 mph N/A   Clear
9:55 AM 78.3 °F - 56.8 °F 48% 29.90 in 10.0 mi South 11.5 mph - N/A   Clear
10:15 AM 80.2 °F 80.5 °F 57.4 °F 45% 29.89 in 10.0 mi South 12.7 mph 17.3 mph N/A   Clear
10:35 AM 80.1 °F 80.3 °F 56.5 °F 44% 29.89 in 10.0 mi South 17.3 mph - N/A   Clear
10:55 AM 81.5 °F 81.1 °F 55.4 °F 41% 29.88 in 10.0 mi South 13.8 mph 20.7 mph N/A   Clear
11:15 AM 82.0 °F 81.5 °F 55.2 °F 40% 29.88 in 10.0 mi South 13.8 mph 20.7 mph N/A   Clear
11:35 AM 81.3 °F 80.8 °F 54.0 °F 39% 29.87 in 10.0 mi South 12.7 mph 18.4 mph N/A   Scattered Clouds
11:55 AM 82.4 °F 81.4 °F 53.6 °F 37% 29.86 in 10.0 mi South 11.5 mph 23.0 mph N/A   Scattered Clouds
12:15 PM 81.5 °F 80.9 °F 54.1 °F 39% 29.86 in 10.0 mi South 15.0 mph 25.3 mph N/A   Scattered Clouds
12:35 PM 81.7 °F 81.4 °F 56.3 °F 42% 29.85 in 10.0 mi South 17.3 mph 24.2 mph N/A   Mostly Cloudy
12:55 PM 82.2 °F 81.5 °F 54.9 °F 39% 29.85 in 10.0 mi South 19.6 mph 26.5 mph N/A   Scattered Clouds
1:15 PM 80.4 °F 80.4 °F 55.0 °F 42% 29.84 in 10.0 mi South 13.8 mph 24.2 mph N/A   Mostly Cloudy
1:35 PM 81.0 °F 80.7 °F 55.0 °F 41% 29.83 in 10.0 mi South 18.4 mph 23.0 mph N/A   Mostly Cloudy
1:55 PM 81.5 °F 81.0 °F 55.0 °F 40% 29.83 in 10.0 mi South 15.0 mph 25.3 mph N/A   Scattered Clouds
2:15 PM 80.6 °F 80.4 °F 54.5 °F 40% 29.82 in 10.0 mi South 17.3 mph 24.2 mph N/A   Scattered Clouds
2:35 PM 81.1 °F 80.8 °F 54.5 °F 40% 29.81 in 10.0 mi South 19.6 mph 23.0 mph N/A   Scattered Clouds
2:55 PM 79.3 °F - 55.0 °F 43% 29.81 in 10.0 mi South 15.0 mph 21.9 mph N/A   Mostly Cloudy
3:15 PM 80.6 °F 80.6 °F 55.9 °F 43% 29.81 in 10.0 mi South 17.3 mph 20.7 mph N/A   Mostly Cloudy
3:35 PM 79.7 °F - 56.3 °F 44% 29.81 in 10.0 mi SSW 9.2 mph 23.0 mph N/A   Scattered Clouds
3:55 PM 79.5 °F - 58.8 °F 49% 29.81 in 10.0 mi SW 8.1 mph 26.5 mph N/A   Mostly Cloudy
4:15 PM 72.9 °F - 63.9 °F 73% 29.82 in 10.0 mi SW 6.9 mph 17.3 mph N/A Rain Light Rain
4:35 PM 70.2 °F - 64.4 °F 82% 29.81 in 10.0 mi SSW 8.1 mph - N/A Rain Light Rain
4:55 PM 70.7 °F - 64.8 °F 81% 29.81 in 10.0 mi South 12.7 mph - N/A Rain Light Rain
5:15 PM 70.9 °F - 63.9 °F 78% 29.80 in 10.0 mi South 11.5 mph 17.3 mph N/A   Mostly Cloudy
5:35 PM 70.7 °F - 63.1 °F 77% 29.81 in 10.0 mi South 15.0 mph 18.4 mph N/A   Mostly Cloudy
5:55 PM 70.7 °F - 63.0 °F 76% 29.81 in 10.0 mi SSW 4.6 mph - N/A   Mostly Cloudy
6:15 PM 71.1 °F - 62.6 °F 75% 29.79 in 10.0 mi Calm Calm - N/A   Mostly Cloudy
6:35 PM 70.7 °F - 62.4 °F 75% 29.79 in 10.0 mi South 6.9 mph - N/A   Clear
6:55 PM 70.9 °F - 61.9 °F 73% 29.79 in 10.0 mi South 6.9 mph - N/A   Scattered Clouds
7:15 PM 70.3 °F - 62.4 °F 76% 29.81 in 10.0 mi South 9.2 mph - N/A   Mostly Cloudy
7:35 PM 70.9 °F - 60.4 °F 69% 29.79 in 10.0 mi South 11.5 mph - N/A Rain Light Rain
7:55 PM 71.6 °F - 59.9 °F 66% 29.79 in 10.0 mi South 8.1 mph - N/A   Scattered Clouds
8:15 PM 70.7 °F - 59.9 °F 69% 29.79 in 10.0 mi South 6.9 mph - N/A   Clear
8:35 PM 69.3 °F - 60.1 °F 72% 29.78 in 10.0 mi South 8.1 mph - N/A   Clear
8:55 PM 68.0 °F - 60.3 °F 76% 29.79 in 10.0 mi Calm Calm - N/A   Clear
9:15 PM 67.5 °F - 60.3 °F 78% 29.79 in 10.0 mi Calm Calm - N/A   Clear
9:35 PM 65.8 °F - 60.3 °F 82% 29.79 in 10.0 mi Calm Calm - N/A   Clear
9:55 PM 65.8 °F - 60.8 °F 84% 29.80 in 10.0 mi Calm Calm - N/A   Clear
10:15 PM 65.5 °F - 61.0 °F 85% 29.80 in 10.0 mi Calm Calm - N/A   Clear
10:35 PM 64.6 °F - 61.0 °F 88% 29.80 in 10.0 mi Calm Calm - N/A   Clear
10:55 PM 64.8 °F - 60.4 °F 86% 29.79 in 10.0 mi Calm Calm - N/A   Clear
11:15 PM 64.4 °F - 59.5 °F 84% 29.79 in 10.0 mi Calm Calm - N/A   Clear
11:35 PM 64.0 °F - 59.2 °F 84% 29.79 in 10.0 mi Calm Calm - N/A   Clear
11:55 PM 63.9 °F - 59.0 °F 84% 29.79 in 10.0 mi Calm Calm - N/A   Clear